{"data":{"norad_id":55635,"intl_designator":"2023-021H","name":"STARLINK-5495","alt_names":[],"object_type":"PAYLOAD","status":"ACTIVE","operator":null,"country":"US","launch_date":"2023-02-17","launch_site_code":"AFWTR","launch_vehicle":null,"mission":null,"orbit_class":"UNKNOWN","rcs_meters":null,"size_class":null,"mass_kg":null,"dimensions":null,"purposes":["comms"],"wikipedia_slug":null,"has_3d_model":false,"image_url":null,"decayed_at":null,"tle_current":{"epoch":"2026-09-20T21:54:06.892128Z","epoch_age_seconds":67439,"freshness":"FRESH","line1":"1 55635U 23021H   26263.91257977  .00000345  00000+0  36738-4 0  9990","line2":"2 55635  70.0003  52.2445 0003061 269.5002  90.5806 14.98331653198034","mean_motion":14.98331653,"eccentricity":0.0003061,"inclination_deg":70.0003,"raan_deg":52.2445,"arg_perigee_deg":269.5002,"mean_anomaly_deg":90.5806,"bstar":3.6738e-5,"rev_number":19803,"period_min":96.106893097853,"perigee_km":569.92332670377,"apogee_km":574.17823166218,"semimajor_km":6950.187779183,"source":"CELESTRAK","updated_at":"2026-09-21T09:00:33.280876Z"}}}